Location: La Bilong�re
(48.1297°N, 1.4584°W)
Time: 21:21:44
(UTC+00:00)

BREEZE-M DEB (TANK) - Pass Details

Date: 03 March 2021
Orbit: 308 x 15403 km, 49.5° (Epoch: 14 April)

Event Time Altitude Azimuth Distance (km) Brightness Sun altitude
Rises 19:46:32 0° 278° (W) 2,081 6.9 -19.6°
Reaches altitude 10° 19:47:55 10° 281° (W) 1,383 5.6 -19.8°
Maximum altitude 19:50:28 73° 8° (N) 573 2.3 -20.2°
Enters shadow 19:51:26 48° 78° (ENE) 829 2.8 -20.4°
